Weather History for Plymouth, NH

Change the Weather History Date:

Saturday, October 29, 2011

  Actual Average (KLCI) Record (KLCI)
Temperature  
Mean Temperature 32 °F -  
Max Temperature 37 °F 54 °F 76 °F (1989)
Min Temperature 26 °F 35 °F 23 °F (2013)
Degree Days  
Heating Degree Days 34    
Moisture  
Dew Point 27 °F    
Average Humidity 87    
Maximum Humidity 100    
Minimum Humidity 56    
Precipitation  
Precipitation 0.00 in - - ()
Sea Level Pressure  
Sea Level Pressure 30.22 in    
Wind  
Wind Speed 0 mph (East)    
Max Wind Speed 4 mph    
Max Gust Speed -    
Visibility 10 miles    
Events      
Averages and records for this station are not official NWS values.
T = Trace of Precipitation, MM = Missing Value Source: NWS Daily Summary

Daily Weather History Graph

Daily Weather History Graph

Search for Another Location

Airport:

Trip Planner

Search our weather history database for the weather conditions in past years. The results will help you decide how hot, cold, wet, or windy it might be!

Date:

Astronomy

Oct. 29, 2011 Rise Set
Actual Time 7:18 AM EDT 5:42 PM EDT
Civil Twilight 6:48 AM EDT 6:11 PM EDT
Nautical Twilight 6:15 AM EDT 6:45 PM EDT
Astronomical Twilight 5:41 AM EDT 7:18 PM EDT
Moon 10:43 AM EDT (10/29) 7:56 PM EDT (10/29)
Length of Visible Light 11h 22m
Length of Day
10h 23m
Waxing Crescent, 11% of the Moon is Illuminated
Oct 29
Waxing Crescent
Nov 2
First Quarter
Nov 10
Full
Nov 18
Last Quarter
Nov 25
New

Hourly Weather History & Observations

Time (EDT) Temp. Windchill Dew Point Humidity Pressure Visibility Wind Dir Wind Speed Gust Speed Precip Events Conditions
12:15 AM 30.2 °F - 28.4 °F 93% 30.24 in 10.0 mi Calm Calm - N/A   Clear
12:35 AM 30.2 °F - 28.4 °F 93% 30.25 in 10.0 mi Calm Calm - N/A   Clear
12:55 AM 28.4 °F - 28.4 °F 100% 30.25 in 10.0 mi Calm Calm - N/A   Clear
1:15 AM 28.4 °F - 28.4 °F 100% 30.25 in 10.0 mi Calm Calm - N/A   Clear
1:35 AM 28.4 °F - 28.4 °F 100% 30.25 in 10.0 mi Calm Calm - N/A   Clear
1:55 AM 28.4 °F - 28.4 °F 100% 30.25 in 10.0 mi Calm Calm - N/A   Clear
2:15 AM 28.4 °F - 28.4 °F 100% 30.24 in 10.0 mi Calm Calm - N/A   Clear
2:35 AM 28.4 °F - 28.4 °F 100% 30.25 in 10.0 mi Calm Calm - N/A   Clear
2:55 AM 28.4 °F - 28.4 °F 100% 30.24 in 10.0 mi Calm Calm - N/A   Clear
3:15 AM 28.4 °F - 28.4 °F 100% 30.24 in 10.0 mi Calm Calm - N/A   Clear
3:35 AM 28.4 °F - 28.4 °F 100% 30.25 in 10.0 mi Calm Calm - N/A   Clear
3:55 AM 26.6 °F - 26.6 °F 100% 30.24 in 10.0 mi Calm Calm - N/A   Clear
4:35 AM 26.6 °F - 26.6 °F 100% 30.25 in 10.0 mi Calm Calm - N/A   Clear
4:55 AM 26.6 °F - 26.6 °F 100% 30.25 in 10.0 mi Calm Calm - N/A   Clear
5:15 AM 26.6 °F - 26.6 °F 100% 30.26 in 10.0 mi Calm Calm - N/A   Clear
5:35 AM 26.6 °F - 26.6 °F 100% 30.27 in 10.0 mi Calm Calm - N/A   Clear
6:15 AM 26.6 °F 22.6 °F 26.6 °F 100% 30.26 in 10.0 mi East 3.5 mph - N/A   Clear
6:35 AM 28.4 °F - 26.6 °F 93% 30.26 in 10.0 mi Calm Calm - N/A   Clear
7:15 AM 26.6 °F - 26.6 °F 100% 30.27 in 10.0 mi Calm Calm - N/A   Clear
7:35 AM 26.6 °F - 26.6 °F 100% 30.27 in 10.0 mi Calm Calm - N/A   Clear
7:55 AM 26.6 °F - 26.6 °F 100% 30.27 in 10.0 mi Calm Calm - N/A   Scattered Clouds
8:15 AM 26.6 °F - 26.6 °F 100% 30.27 in 10.0 mi Calm Calm - N/A   Clear
8:35 AM 28.4 °F - 28.4 °F 100% 30.27 in 10.0 mi Calm Calm - N/A   Clear
8:55 AM 30.2 °F - 28.4 °F 93% 30.26 in 10.0 mi Calm Calm - N/A   Clear
9:15 AM 30.2 °F - 28.4 °F 93% 30.27 in 10.0 mi Calm Calm - N/A   Clear
9:35 AM 32.0 °F - 28.4 °F 87% 30.25 in 10.0 mi Calm Calm - N/A   Clear
9:55 AM 32.0 °F - 28.4 °F 87% 30.26 in 10.0 mi Calm Calm - N/A   Clear
10:15 AM 32.0 °F - 28.4 °F 87% 30.25 in 10.0 mi Calm Calm - N/A   Clear
10:35 AM 32.0 °F - 30.2 °F 93% 30.23 in 10.0 mi Calm Calm - N/A   Clear
10:55 AM 32.0 °F - 28.4 °F 87% 30.24 in 10.0 mi Calm Calm - N/A   Clear
11:15 AM 33.8 °F - 28.4 °F 81% 30.24 in 10.0 mi Calm Calm - N/A   Clear
11:35 AM 33.8 °F - 28.4 °F 81% 30.22 in 10.0 mi Calm Calm - N/A   Clear
12:35 PM 35.6 °F - 28.4 °F 75% 30.21 in 10.0 mi Calm Calm - N/A   Clear
12:55 PM 35.6 °F - 28.4 °F 75% 30.19 in 10.0 mi Calm Calm - N/A   Scattered Clouds
1:15 PM 37.4 °F 34.9 °F 26.6 °F 65% 30.18 in 10.0 mi East 3.5 mph - N/A   Mostly Cloudy
1:35 PM 37.4 °F 34.9 °F 24.8 °F 60% 30.17 in 10.0 mi East 3.5 mph - N/A   Overcast
1:55 PM 37.4 °F 34.9 °F 23.0 °F 56% 30.16 in 10.0 mi ESE 3.5 mph - N/A   Overcast
2:15 PM 37.4 °F - 23.0 °F 56% 30.14 in 10.0 mi Calm Calm - N/A   Overcast
2:35 PM 37.4 °F - 23.0 °F 56% 30.11 in 10.0 mi Calm Calm - N/A   Overcast
2:55 PM 37.4 °F - 23.0 °F 56% 30.12 in 10.0 mi Calm Calm - N/A   Overcast
3:35 PM 37.4 °F - 24.8 °F 60% 30.10 in 10.0 mi Calm Calm - N/A   Overcast
3:55 PM 37.4 °F - 24.8 °F 60% 30.09 in 10.0 mi Calm Calm - N/A   Overcast
4:35 PM 35.6 °F - 26.6 °F 70% 30.07 in 10.0 mi Calm Calm - N/A   Overcast
4:55 PM 35.6 °F - 26.6 °F 70% 30.07 in 10.0 mi Calm Calm - N/A   Overcast
5:15 PM 35.6 °F - 28.4 °F 75% 30.06 in 10.0 mi Calm Calm - N/A   Overcast
5:35 PM 35.6 °F - 28.4 °F 75% 30.10 in 10.0 mi Calm Calm - N/A   Overcast
5:55 PM 35.6 °F 26.6 °F 26.6 °F 70% 30.08 in 10.0 mi East 13.8 mph 19.6 mph N/A Snow Light Snow
6:15 PM 32.0 °F 27.5 °F 30.2 °F 93% 30.09 in 1.5 mi ESE 4.6 mph - N/A Snow Light Snow
6:35 PM 32.0 °F - 32.0 °F 100% 30.08 in 2.0 mi Calm Calm - N/A Snow Light Snow
6:55 PM 32.0 °F - 32.0 °F 100% 30.09 in 1.5 mi Calm Calm - N/A Snow Light Snow
7:15 PM 32.0 °F - 32.0 °F 100% 30.07 in 1.8 mi Calm Calm - 0.01 in Snow Light Snow
7:35 PM 32.0 °F - 32.0 °F 100% 30.08 in 1.2 mi Calm Calm - 0.02 in Snow Light Snow
7:55 PM 32.0 °F - 32.0 °F 100% 30.05 in 1.2 mi Calm Calm - 0.03 in Snow Snow
8:15 PM 32.0 °F - 32.0 °F 100% 30.07 in 1.0 mi Calm Calm - 0.02 in Snow Snow
8:35 PM 32.0 °F 28.7 °F 32.0 °F 100% 30.03 in 1.0 mi NNW 3.5 mph - 0.04 in Snow Snow
8:55 PM 32.0 °F - 32.0 °F 100% 29.99 in 1.5 mi Calm Calm - 0.05 in Snow Light Snow
9:15 PM 32.0 °F - 32.0 °F 100% 30.01 in 2.0 mi Calm Calm - N/A Snow Light Snow
9:35 PM 32.0 °F - 32.0 °F 100% 30.00 in 1.8 mi Calm Calm - N/A Snow Light Snow
9:55 PM 32.0 °F - 32.0 °F 100% 29.97 in 2.5 mi Calm Calm - N/A Snow Light Snow
10:15 PM 32.0 °F 27.5 °F 32.0 °F 100% 29.96 in 1.2 mi West 4.6 mph - 0.01 in Snow Snow
10:35 PM 32.0 °F 28.7 °F 32.0 °F 100% 29.97 in 0.8 mi NW 3.5 mph - 0.02 in Snow Snow
10:55 PM 32.0 °F 28.7 °F 32.0 °F 100% 29.91 in 0.8 mi NW 3.5 mph - 0.04 in Snow Snow
11:35 PM 32.0 °F - 32.0 °F 100% 29.94 in 1.5 mi Calm Calm - 0.01 in Snow Light Snow
11:55 PM 32.0 °F 28.7 °F 32.0 °F 100% 29.94 in 1.0 mi West 3.5 mph - 0.02 in Snow Snow